Find Kosmos-2144

NORAD ID: 21300 Int'l Des: 1991-033 Owner: UNKSR Country: SU operational
LEOCIRCULARPOLAR

Live Position

Loading 3D Globe...

About Kosmos-2144

Description loading...

Upcoming Passes

Passes for default location (London). Set your location on the main map for personalized predictions.

Altitude History

Loading altitude history...

Two-Line Element Set

1 21300U 91033B 26104.43627527 .00000015 00000-0 24957-4 0 9998
2 21300 82.5827 10.0705 0003888 257.2871 102.7786 12.62390855608413
Epoch: Apr 14, 2026 • Age: 16 hours

Current Status

Altitude 1421.2 km
Velocity 7.15 km/s
Sub-Earth Point -27.66°S, 51.52°W
Launch Date May 16, 1991
Age 34.9 years
Type other

Technical Details

Classification Payload
Mass 225.00 kg
Dry Mass 225.00 kg
Total Mass 225.00 kg
Length 1.60 m
Diameter 0.80 m
Span 7.00 m
Shape Cyl + Ant
Manufacturer NPOPM
Bus Type Strela-3
Phase Status In Orbit
Owner/State UNKSR/SU

Most Searched